Home   Weather   Boston   Past weeks
Flag for USA

Past Weather in Boston, Massachusetts, USA — Yesterday and Last 2 Weeks

Now
68 °F

Passing clouds.


Feels Like: 68 °F
Forecast: 67 / 54 °F
Wind: 13 mph from Northwest

Location: Logan International Airport

Current Time: Oct 23, 2019 at 5:09:00 pm

Latest Report: Oct 23, 2019 at 3:54 pm


Visibility: 10 mi

Pressure: 29.84 "Hg

Humidity: 35%

Dew Point: 39 °F

Location of BostonLocation

Past Weather in Boston — Graph

°F

Boston Temperature Yesterday

Maximum temperature yesterday: 60 °F (at 10:54 am)
Minimum temperature yesterday: 50 °F (at 4:41 am)
Average temperature yesterday: 55 °F

High & Low Weather Summary for the Past Weeks

 TemperatureHumidityPressure
High70 °F (Oct 23, 1:54 pm)93% (Oct 17, 5:54 am)30.34 "Hg (Oct 17, 5:54 am)
Low45 °F (Oct 19, 5:54 am)33% (Oct 15, 1:54 pm)28.80 "Hg (Oct 17, 5:22 am)
Average56 °F71%29.96 "Hg
* Reported Oct 8 3:54 pm — Oct 23 3:54 pm, Boston. Weather by CustomWeather, © 2019

Note: Actual official high and low records may vary slightly from our data, if they occured in-between our weather recording intervals... More about our weather records

Advertising

Boston Weather History for the Previous 24 Hours

Scroll right to see more
 ConditionsComfort  
Time TempWeatherWind HumidityBarometerVisibility
3:54 pm
Wed, Oct 23
68 °FPassing clouds.13 mph35%29.84 "Hg10 mi
2:54 pm69 °FScattered clouds.21 mph36%29.81 "Hg10 mi
1:54 pm70 °FScattered clouds.12 mph42%29.79 "Hg10 mi
12:54 pm67 °FScattered clouds.14 mph55%29.79 "Hg10 mi
12:01 pm64 °FScattered clouds.15 mph65%29.79 "Hg10 mi
10:54 am61 °FMostly cloudy.15 mph75%29.78 "Hg10 mi
10:22 am61 °FBroken clouds.9 mph78%29.76 "Hg10 mi
9:54 am59 °FOvercast.12 mph84%29.77 "Hg10 mi
8:54 am57 °FCloudy.12 mph90%29.73 "Hg10 mi
8:13 am58 °FRain. Fog.12 mph87%29.75 "Hg1 mi
8:05 am58 °FHeavy rain. Fog.10 mph90%29.75 "Hg1 mi
7:25 am60 °FLight rain. Fog.13 mph86%29.73 "Hg2 mi
6:54 am61 °FHeavy rain. Fog.5 mph90%29.72 "Hg1 mi
5:54 am59 °FFog.No wind93%29.72 "Hg1 mi
4:54 am59 °FFog.3 mph90%29.75 "Hg1 mi
3:54 am59 °FLight rain. Fog.5 mph90%29.77 "Hg1 mi
2:54 am60 °FFog.6 mph90%29.80 "Hg1 mi
1:54 am59 °FLight rain. Fog.6 mph90%29.83 "Hg1 mi
1:20 am59 °FLight rain. Fog.7 mph87%29.85 "Hg1 mi
12:54 am58 °FLight rain. Fog.No wind90%29.87 "Hg1 mi
11:54 pm
Tue, Oct 22
58 °FLight rain. Fog.6 mph90%29.90 "Hg1 mi
10:54 pm58 °FLight rain. Fog.9 mph87%29.93 "Hg1 mi
9:54 pm57 °FDrizzle. Fog.13 mph90%29.96 "Hg3 mi
9:06 pm57 °FLight rain. Fog.15 mph87%29.97 "Hg2 mi
8:54 pm57 °FDrizzle. Fog.13 mph87%29.98 "Hg5 mi
7:54 pm56 °FLight rain. Fog.15 mph90%30.01 "Hg2 mi
7:08 pm56 °FLight rain. Fog.14 mph87%30.04 "Hg2 mi
6:54 pm56 °FDrizzle. Fog.14 mph87%30.04 "Hg2 mi
6:33 pm56 °FDrizzle. Fog.15 mph87%30.03 "Hg2 mi
6:02 pm56 °FDrizzle. Low clouds.15 mph84%30.04 "Hg7 mi
Weather by CustomWeather, © 2019

See weather overview